{"data":{"norad_id":48469,"intl_designator":"2021-040AT","name":"STARLINK-2661","alt_names":[],"object_type":"PAYLOAD","status":"ACTIVE","operator":null,"country":"US","launch_date":"2021-05-09","launch_site_code":"AFETR","launch_vehicle":null,"mission":null,"orbit_class":"UNKNOWN","rcs_meters":null,"size_class":null,"mass_kg":null,"dimensions":null,"purposes":["comms"],"wikipedia_slug":null,"has_3d_model":false,"image_url":null,"decayed_at":null,"tle_current":{"epoch":"2026-09-19T22:59:56.304384Z","epoch_age_seconds":83987,"freshness":"FRESH","line1":"1 48469U 21040AT  26262.95829056 -.00000454  00000+0 -28564-5 0  9994","line2":"2 48469  53.1611   7.0902 0001164  80.5923 279.5210 15.31696007296277","mean_motion":15.31696007,"eccentricity":0.0001164,"inclination_deg":53.1611,"raan_deg":7.0902,"arg_perigee_deg":80.5923,"mean_anomaly_deg":279.521,"bstar":-2.8564e-6,"rev_number":29627,"period_min":94.013433045399,"perigee_km":469.95468750898,"apogee_km":471.54910884448,"semimajor_km":6848.8888981767,"source":"CELESTRAK","updated_at":"2026-09-20T09:00:39.129047Z"}}}